Regional Weather Roundup
Issued by NWS

Home | Current Version | Previous Version | Graphics & Text | Print | Product List | Glossary On
Versions: 1 2 3 4 5 6 7 8 9 10 11 12 13 14 15 16 17 18 19 20 21 22 23 24 25 26 27 28 29 30 31 32 33 34 35 36 37 38 39 40 41 42 43 44 45 46 47 48 49 50
000
ASUS45 KBOU 292307
RWRCO

WEATHER ROUNDUP FOR COLORADO
NATIONAL WEATHER SERVICE DENVER/BOULDER CO
500 PM MDT SUN MAR 29 2015

NOTE: "FAIR" INDICATES FEW OR NO CLOUDS BELOW 12000 FEET WITH NO
SIGNIFICANT WEATHER AND/OR OBSTRUCTIONS TO VISIBILITY.

COZ001>005-013-030-031-300000-
...NORTHWEST COLORADO...

CITY           SKY/WX    TMP DP  RH WIND       PRES   REMARKS
CRAIG          MOSUNNY   66  16  14 NW12      30.19F
HAYDEN         SUNNY     63  14  15 NW10G16   30.21F
MEEKER         SUNNY     67  11  11 CALM      30.19F
MOUNT WERNER   NOT AVBL
STEAMBOAT SPGS SUNNY     60  14  16 W12       30.22F
WALDEN         SUNNY     54   1  12 W14       30.26S
$$

COZ006>008-011-300000-
...WEST CENTRAL VALLEYS...

CITY           SKY/WX    TMP DP  RH WIND       PRES   REMARKS
GRAND JUNCTION SUNNY     72   9   8 W9G18     30.12F
MONTROSE       SUNNY     72   7   8 NW13      30.17F
EAGLE          SUNNY     66   9  10 W7G18     30.20F
RIFLE          SUNNY     71   6   8 W7        30.13F
DELTA          SUNNY     78   9   7 W13G21    30.12F
NUCLA          SUNNY     72  10   9 NW8       30.20F
$$

COZ017>023-064>068-300000-
...SOUTHWEST COLORADO...

CITY           SKY/WX    TMP DP  RH WIND       PRES   REMARKS
DURANGO        MOSUNNY   70  11  10 SW12G25   30.17F
CORTEZ         SUNNY     74  12   9 W15G23    30.16F
PAGOSA SPRINGS CLOUDY    63  10  12 NE3       30.23F
TELLURIDE      SUNNY    N/A N/A N/A W10       30.35S
WOLF CREEK PAS PTSUNNY   37  16  41 SW12      30.49F
$$

COZ009-010-012-014-032>034-037-058>063-300000-
...CENTRAL COLORADO...

CITY           SKY/WX    TMP DP  RH WIND       PRES   REMARKS
ASPEN          SUNNY     64  10  12 N12       30.24F
BUENA VISTA    SUNNY     65  -3   6 W13       30.23S
COPPER MTN     SUNNY     45  -6  12 W25       30.44S
BERTHOUD PASS  FAIR      34  28  80 W29G40    30.44F WCI  20
COTTONWOOD PAS SUNNY     59 -17   4 W8        30.34F
GUNNISON       SUNNY     63   9  12 SW13G23   30.26S
KREMMLING      SUNNY     63  -4   7 NW8G17    30.23F
LEADVILLE      SUNNY     48   5  17 NW9       30.34S
SALIDA         SUNNY     68  -8   5 NW13      30.27S
SUNLIGHT       SUNNY     50  12  22 SW3       30.43F
WILKERSON PASS SUNNY     46  -4  12 W7        30.42S
$$

COZ069>075-300000-
...SAN LUIS VALLEY/SANGRE DE CRISTO MOUNTAINS...

CITY           SKY/WX    TMP DP  RH WIND       PRES   REMARKS
ALAMOSA        MOSUNNY   65  10  11 S9        30.20F
LA VETA PASS   MOSUNNY   45  25  45 NE10      30.37F
SAGUACHE       SUNNY     66  -6   5 NW13G25   30.23F
$$

COZ035-036-038>040-300000-
...NORTHERN COLORADO FRONT RANGE...

CITY           SKY/WX    TMP DP  RH WIND       PRES   REMARKS
DENVER INTL AP MOSUNNY   61  24  24 SE14G23   30.16F
DMNS CITY PARK   N/A     63  23  21 E6G13     30.15F
AURORA         MOSUNNY   62  26  25 SE15      30.17F
FRONT RANGE AP MOSUNNY   63  27  25 SE14      30.18F
ERIE MUNI ARPT SUNNY     62  22  21 SE10G17   30.15F
BOULDER MUN AP SUNNY     63  23  22 SE9       30.15F
CENTENNIAL     MOSUNNY   62  26  25 SE10      30.17F
BROOMFIELD     MOSUNNY   63  23  22 SE8       30.17F
FORT COLLINS   SUNNY     64  25  22 S14       30.15F
LONGMONT       SUNNY     65  22  19 SE10      30.17S
$$

COZ041-046-047-076>085-087-088-300000-
...PIKES PEAK/PALMER DIVIDE AND SOUTHERN FOOTHILLS...

CITY           SKY/WX    TMP DP  RH WIND       PRES   REMARKS
COLO. SPRINGS  MOSUNNY   60  20  21 S21       30.21F
A. F. ACADEMY  NOT AVBL
ELLICOTT       SUNNY    N/A N/A N/A S12       30.21F
FALCON         SUNNY     59  17  20 S13G20    30.24F
FORT CARSON    SUNNY     62  22  21 S13       30.19
LIMON          SUNNY     59  19  21 SE9       30.21F
MONUMENT HILL  SUNNY     57  21  24 S15       30.22S
TRINIDAD       MOSUNNY   62  21  20 SE10G18   30.22F
$$

COZ042>045-048>051-090-091-300000-
...NORTHEAST COLORADO...

CITY           SKY/WX    TMP DP  RH WIND       PRES   REMARKS
GREELEY ARPT   SUNNY     66  21  18 S12G17    30.13F
AKRON          SUNNY     61  21  21 CALM      30.17F
BURLINGTON     SUNNY     64  18  17 N12G17    30.19F
WRAY           SUNNY     66  15  14 NW7G17    30.16F
STERLING       SUNNY     63  23  22 CALM      30.14F
HOLYOKE        NOT AVBL
FORT MORGAN    SUNNY    N/A N/A N/A E8        30.16F
$$

COZ086-089-092>099-300000-
...SOUTHEAST COLORADO...

CITY           SKY/WX    TMP DP  RH WIND       PRES   REMARKS
PUEBLO         SUNNY     65  21  18 S9        30.17F
LA JUNTA       SUNNY     69  20  15 E8        30.16F
LAMAR          SUNNY     70  18  13 NE9       30.15F
SPRINGFIELD      N/A     67  19  16 N12       30.18F
$$



USA.gov is the U.S. government's official web portal to all federal, state and local government web resources and services.